[[{"header":{"parameterUnit":"m.s-1","parameterCategory":1,"la1":30.2991,"la2":30.254,"lo1":-89.0895,"lo2":-89.0444,"dy":0.0017,"dx":0.0017,"nx":28,"ny":28,"refTime":"2025-05-25T03:00:00:Z","depth":0,"parameterNumber":2,"parameterNumberName":"U-component_of_WINDS"},"data":[0,0,0,0,0,0,0,0,0,0,0,0,0,0,0,0,0,0,0,0,0,0,0,0,0,0,0,0,0,0,0,0,0,0,0,0,0,0,0,0,0,0,0,0,0,0,0,0,0,0,0,0,0,0,0,0,0,0,-0.417,-0.417,0,-0.4181,-0.4181,-0.4181,-0.4207,-0.4208,-0.4208,-0.4209,-0.4218,-0.4218,-0.4218,0,0,0,0,0,0,0,0,0,0,0,0,0,-0.417,-0.417,-0.417,-0.417,-0.417,-0.4181,-0.4181,-0.4181,-0.4207,-0.4208,-0.4208,-0.4209,-0.4219,-0.4218,-0.4218,0,0,0,0,0,0,0,0,0,0,0,0,0,-0.4174,-0.417,-0.417,-0.4184,-0.4186,-0.4181,-0.4181,-0.4181,-0.4207,-0.4208,-0.4208,-0.4209,-0.4219,-0.4218,-0.4218,-0.42,0,0,-0.4217,-0.4217,0,0,0,0,0,0,0,0,-0.4174,-0.4174,-0.4182,-0.4183,-0.4185,-0.4194,-0.4185,-0.4187,-0.4207,-0.4199,-0.4209,-0.421,-0.4209,-0.421,-0.421,-0.42,-0.4201,-0.4217,-0.4217,-0.4216,-0.4216,0,0,0,0,0,0,0,-0.4174,-0.4174,-0.4174,-0.4182,-0.4184,-0.419,-0.4192,-0.4186,-0.4199,-0.42,-0.4201,-0.4202,-0.421,-0.421,-0.4211,-0.4201,-0.4217,-0.4217,-0.4216,-0.4216,-0.4177,-0.4176,0,0,0,0,0,0,-0.4172,-0.4174,-0.4174,-0.4175,-0.4182,-0.4189,-0.4191,-0.419,-0.42,-0.4202,-0.4202,-0.4204,-0.4211,-0.4211,-0.4211,-0.419,-0.4216,-0.4216,-0.4216,-0.4177,-0.4176,-0.4176,0,0,0,0,0,0,-0.4172,-0.4171,-0.4174,-0.4175,-0.4176,-0.4189,-0.4187,-0.419,-0.419,-0.4201,-0.4204,-0.4199,-0.4211,-0.4212,-0.4203,-0.4191,-0.4216,-0.4216,-0.4178,-0.4177,-0.4176,-0.4149,0,0,0,0,0,0,-0.4171,-0.4171,-0.4165,-0.4174,-0.4175,-0.4165,-0.4186,-0.4189,-0.4189,-0.4192,-0.42,-0.4202,-0.4212,-0.4203,-0.4202,-0.4191,-0.4215,-0.418,-0.4178,-0.4176,-0.4151,-0.4147,-0.4144,0,0,0,0,0,-0.4171,-0.4156,-0.4164,-0.4164,-0.4167,-0.4164,-0.4165,-0.4177,-0.4188,-0.4182,-0.4189,-0.4201,-0.4193,-0.4202,-0.4201,-0.419,-0.418,-0.4178,-0.4177,-0.4153,-0.4148,-0.4144,0,0,0,0,0,0,-0.4144,-0.4158,-0.4167,-0.4154,-0.4158,-0.4169,-0.4161,-0.4172,-0.4172,-0.4174,-0.4189,-0.4191,-0.418,-0.4184,-0.4194,-0.4173,-0.4188,-0.4186,-0.4171,-0.4166,-0.4162,-0.4161,-0.4215,0,0,0,0,0,-0.4137,-0.4133,-0.4145,-0.4133,-0.4135,-0.4147,-0.4146,-0.4156,-0.416,-0.4162,-0.4169,-0.4172,-0.417,-0.4168,-0.4167,-0.4152,-0.4154,-0.4144,-0.414,-0.4137,-0.4135,-0.4127,-0.4123,-0.4169,-0.4169,-0.4169,0,0,-0.4121,-0.4128,-0.4125,-0.4128,-0.4132,-0.4128,-0.4148,-0.4143,-0.4141,-0.4161,-0.4153,-0.4158,-0.4163,-0.4151,-0.4146,-0.4154,-0.4123,-0.4135,-0.4132,-0.4132,-0.4125,-0.4121,-0.4117,-0.4168,-0.4168,-0.4169,0,0,-0.4091,-0.4096,-0.4087,-0.409,-0.4097,-0.4105,-0.4103,-0.4112,-0.4116,-0.4109,-0.4124,-0.4121,-0.4117,-0.412,-0.4121,-0.4093,-0.4104,-0.4092,-0.4072,-0.4065,-0.4061,-0.4058,-0.4048,-0.4044,-0.409,-0.409,-0.4089,0,-0.4071,-0.4066,-0.408,-0.4074,-0.4075,-0.4094,-0.4085,-0.4088,-0.4093,-0.4093,-0.4102,-0.4098,-0.4102,-0.4091,-0.4085,-0.4085,-0.4082,-0.4091,-0.4061,-0.4057,-0.4055,-0.4045,-0.4041,-0.4088,-0.4088,-0.4088,-0.4088,0,-0.4041,-0.4037,-0.4029,-0.4034,-0.4034,-0.4026,-0.4039,-0.4037,-0.4047,-0.4054,-0.4047,-0.4053,-0.4053,-0.4051,-0.406,-0.4042,-0.4047,-0.4058,-0.4074,-0.4049,-0.404,-0.4036,-0.4086,-0.4086,-0.4087,-0.4087,0,0,-0.3993,-0.4007,-0.4004,-0.4006,-0.4015,-0.4012,-0.4005,-0.4006,-0.4005,-0.4008,-0.4002,-0.3999,-0.401,-0.4011,-0.402,-0.4014,-0.3991,-0.4026,-0.4026,-0.4019,-0.3971,-0.3962,-0.3958,-0.3999,-0.3998,-0.3998,-0.397,0,-0.3965,-0.3954,-0.3967,-0.3954,-0.3951,-0.3969,-0.3963,-0.3968,-0.3975,-0.3973,-0.398,-0.3978,-0.3992,-0.3993,-0.3987,-0.3995,-0.3981,-0.3997,-0.3993,-0.3993,-0.3991,-0.3953,-0.3944,-0.3918,-0.3967,-0.3966,-0.3966,0,-0.393,-0.3932,-0.3919,-0.3929,-0.3928,-0.3922,-0.3925,-0.3923,-0.3928,-0.3934,-0.3935,-0.3947,-0.3941,-0.3956,-0.3948,-0.3958,-0.3958,-0.3961,-0.3961,-0.396,-0.3978,-0.3952,-0.391,-0.3906,-0.3961,-0.3961,-0.3962,0,-0.3897,-0.3896,-0.3888,-0.389,-0.3901,-0.3897,-0.3901,-0.3907,-0.3907,-0.3909,-0.3909,-0.391,-0.3911,-0.3911,-0.3923,-0.3933,-0.3913,-0.393,-0.3917,-0.3917,-0.3912,-0.3912,-0.3869,-0.3911,-0.3911,-0.3912,-0.3912,0,-0.3864,-0.3855,-0.3873,-0.3868,-0.3859,-0.3874,-0.3864,-0.387,-0.3876,-0.3872,-0.3888,-0.3884,-0.39,-0.3897,-0.3906,-0.3898,-0.3898,-0.3902,-0.3905,-0.3901,-0.39,-0.39,-0.3902,-0.3911,-0.3911,-0.3911,-0.3911,0,-0.3825,-0.3837,-0.3829,-0.3841,-0.3843,-0.3836,-0.3846,-0.3841,-0.385,-0.3845,-0.3844,-0.3857,-0.3855,-0.3867,-0.3867,-0.3873,-0.3861,-0.3866,-0.3859,-0.3861,-0.3847,-0.3848,-0.3803,-0.3798,-0.3844,-0.3843,-0.3843,0,-0.3803,-0.3796,-0.3807,-0.3806,-0.381,-0.3808,-0.3808,-0.3823,-0.3823,-0.3829,-0.3823,-0.3823,-0.3824,-0.382,-0.3829,-0.3829,-0.3835,-0.3819,-0.3835,-0.3831,-0.3835,-0.3835,-0.3834,-0.3815,-0.3815,-0.3814,-0.3814,0,-0.3762,-0.3769,-0.3769,-0.3771,-0.3771,-0.3774,-0.3777,-0.3775,-0.3791,-0.379,-0.3788,-0.3789,-0.3789,-0.3789,-0.3791,-0.3795,-0.3807,-0.3809,-0.3806,-0.3802,-0.3798,-0.38,-0.385,-0.381,-0.381,-0.3811,-0.3811,-0.3811,-0.3731,-0.3727,-0.3734,-0.3733,-0.3738,-0.374,-0.3737,-0.3745,-0.3745,-0.3747,-0.3755,-0.3752,-0.3758,-0.3762,-0.3766,-0.3763,-0.3771,-0.3767,-0.3766,-0.3764,-0.3762,-0.3798,-0.3764,-0.3764,-0.3764,-0.3764,-0.3764,0,-0.3692,-0.3698,-0.3697,-0.3702,-0.3701,-0.3713,-0.3718,-0.3716,-0.3714,-0.3718,-0.3719,-0.3717,-0.3717,-0.3726,-0.3727,-0.3724,-0.3729,-0.3723,-0.3723,-0.3724,-0.3755,-0.3758,-0.3719,-0.3719,-0.3719,-0.3719,-0.3719,-0.3719,-0.3671,-0.3664,-0.3672,-0.3667,-0.3672,-0.367,-0.3671,-0.3674,-0.3678,-0.3676,-0.3676,-0.3682,-0.3689,-0.369,-0.369,-0.3693,-0.3692,-0.3685,-0.3689,-0.3718,-0.3722,-0.3726,-0.3729,-0.3684,-0.3684,-0.3658,-0.3658,-0.3658]},{"header":{"parameterUnit":"m.s-1","parameterCategory":1,"la1":30.2991,"la2":30.254,"lo1":-89.0895,"lo2":-89.0444,"dy":0.0017,"dx":0.0017,"nx":28,"ny":28,"refTime":"2025-05-25T03:00:00:Z","depth":0,"parameterNumber":3,"parameterNumberName":"V-component_of_WINDS"},"data":[0,0,0,0,0,0,0,0,0,0,0,0,0,0,0,0,0,0,0,0,0,0,0,0,0,0,0,0,0,0,0,0,0,0,0,0,0,0,0,0,0,0,0,0,0,0,0,0,0,0,0,0,0,0,0,0,0,0,1.5064,1.5065,0,1.5144,1.5145,1.5146,1.5167,1.5166,1.5166,1.5165,1.5245,1.5248,1.525,0,0,0,0,0,0,0,0,0,0,0,0,0,1.4927,1.493,1.5064,1.5065,1.5066,1.5144,1.5145,1.5146,1.5167,1.5166,1.5166,1.5165,1.5245,1.5248,1.5251,0,0,0,0,0,0,0,0,0,0,0,0,0,1.4995,1.493,1.5063,1.5086,1.5088,1.5144,1.5145,1.5146,1.5167,1.5166,1.5166,1.5165,1.5244,1.5247,1.5251,1.5289,0,0,1.5263,1.5265,0,0,0,0,0,0,0,0,1.4991,1.5,1.5081,1.5084,1.5087,1.5145,1.5126,1.5194,1.5167,1.5137,1.5165,1.5165,1.5212,1.5219,1.5235,1.5293,1.5296,1.5263,1.5266,1.5267,1.5268,0,0,0,0,0,0,0,1.4986,1.4996,1.5095,1.5083,1.5086,1.5091,1.51,1.5139,1.5178,1.514,1.5141,1.5151,1.5214,1.5231,1.5237,1.5298,1.5263,1.5267,1.5269,1.527,1.5391,1.5392,0,0,0,0,0,0,1.4978,1.4992,1.5093,1.5098,1.5036,1.5094,1.5104,1.5127,1.5177,1.5184,1.5151,1.5151,1.5225,1.5233,1.524,1.5289,1.5267,1.5271,1.5273,1.539,1.5391,1.5392,0,0,0,0,0,0,1.4975,1.4987,1.509,1.5046,1.5059,1.5097,1.5123,1.5129,1.5147,1.5186,1.5193,1.5162,1.5225,1.5235,1.5277,1.5292,1.5273,1.5276,1.5389,1.5391,1.5392,1.5386,0,0,0,0,0,0,1.4971,1.4985,1.5001,1.5046,1.5061,1.5126,1.5124,1.5131,1.5154,1.5155,1.5198,1.5205,1.5225,1.5271,1.5281,1.5297,1.5279,1.5388,1.539,1.5392,1.5385,1.5387,1.5388,0,0,0,0,0,1.4966,1.4995,1.5001,1.5013,1.5081,1.5127,1.5135,1.5159,1.5155,1.517,1.5196,1.5203,1.5289,1.5276,1.5287,1.5304,1.5387,1.5389,1.5391,1.5384,1.5386,1.5388,0,0,0,0,0,0,1.495,1.5001,1.5009,1.5054,1.5086,1.513,1.515,1.516,1.5194,1.5193,1.522,1.523,1.527,1.5291,1.5276,1.5344,1.5338,1.5342,1.5329,1.5331,1.5333,1.5327,1.5282,0,0,0,0,0,1.4952,1.4985,1.5028,1.5063,1.5079,1.5112,1.5132,1.5148,1.5182,1.5195,1.5224,1.5256,1.529,1.5311,1.5345,1.5388,1.5398,1.5405,1.5407,1.5408,1.5412,1.5436,1.544,1.5399,1.5399,1.5399,0,0,1.4955,1.4988,1.5007,1.5061,1.5087,1.512,1.5123,1.5158,1.5183,1.52,1.5242,1.5264,1.5302,1.5345,1.5365,1.5364,1.5425,1.5411,1.5411,1.5414,1.5439,1.5443,1.5446,1.54,1.54,1.54,0,0,1.4979,1.5007,1.504,1.5067,1.5107,1.5129,1.5137,1.518,1.5196,1.5239,1.5253,1.5282,1.534,1.5367,1.5388,1.5423,1.5431,1.5433,1.5442,1.5466,1.5469,1.5472,1.5485,1.5489,1.5436,1.5436,1.5436,0,1.4978,1.503,1.5055,1.509,1.5113,1.5131,1.5165,1.5189,1.5238,1.5254,1.5251,1.5325,1.5352,1.5402,1.541,1.5426,1.5436,1.5428,1.5467,1.547,1.5473,1.5486,1.549,1.5436,1.5436,1.5436,1.5436,0,1.5027,1.5063,1.5084,1.5132,1.5158,1.5192,1.5222,1.5245,1.5258,1.528,1.5324,1.5356,1.5397,1.541,1.5422,1.5462,1.5459,1.5461,1.5456,1.5476,1.5489,1.5494,1.5436,1.5436,1.5436,1.5436,0,0,1.5043,1.5105,1.5113,1.5135,1.5182,1.5209,1.5244,1.5285,1.5304,1.5337,1.5367,1.5416,1.5418,1.5442,1.5458,1.5479,1.5505,1.5479,1.548,1.5483,1.5551,1.5549,1.5554,1.5511,1.5512,1.5513,1.5548,0,1.5073,1.5137,1.516,1.5212,1.5245,1.5263,1.5293,1.5325,1.5346,1.5377,1.5401,1.5435,1.5436,1.545,1.5472,1.5497,1.5519,1.5495,1.5539,1.554,1.5529,1.5561,1.5559,1.559,1.5553,1.5553,1.5554,0,1.5117,1.5152,1.5207,1.525,1.5265,1.5292,1.5331,1.5361,1.5397,1.5411,1.5438,1.5453,1.5489,1.5482,1.5533,1.5516,1.5535,1.555,1.5552,1.5557,1.5548,1.5567,1.5601,1.5606,1.5562,1.5561,1.5561,0,1.5123,1.5184,1.5225,1.5244,1.5295,1.5313,1.5335,1.5371,1.5394,1.5428,1.5444,1.5481,1.5502,1.5531,1.5555,1.5548,1.5604,1.5599,1.5617,1.5616,1.5628,1.5627,1.5666,1.564,1.564,1.564,1.5639,0,1.5155,1.5188,1.5229,1.5254,1.5292,1.5319,1.5355,1.5378,1.541,1.544,1.5457,1.5485,1.5515,1.5547,1.5566,1.5605,1.5614,1.5627,1.5632,1.5626,1.5624,1.5639,1.5637,1.5641,1.5641,1.564,1.564,0,1.5168,1.5197,1.5243,1.5288,1.5301,1.5326,1.5365,1.539,1.5412,1.545,1.546,1.5495,1.5533,1.5561,1.5609,1.5622,1.5665,1.5669,1.5653,1.5655,1.5672,1.567,1.5722,1.573,1.5698,1.5698,1.5699,0,1.5187,1.5213,1.5261,1.5283,1.5305,1.5339,1.5364,1.5391,1.5415,1.5459,1.5479,1.5518,1.5551,1.5611,1.564,1.5678,1.5683,1.5699,1.5689,1.5682,1.5684,1.5683,1.5686,1.57,1.5701,1.5701,1.5701,0,1.5216,1.5229,1.5264,1.5304,1.5332,1.5364,1.5397,1.5413,1.5447,1.5473,1.5513,1.5538,1.5589,1.5627,1.5668,1.569,1.5701,1.5704,1.571,1.5704,1.5694,1.57,1.5657,1.5703,1.5702,1.5702,1.5702,1.5702,1.5233,1.5257,1.5295,1.5333,1.5361,1.5391,1.5417,1.5444,1.5477,1.5521,1.5535,1.5576,1.5612,1.5667,1.569,1.5722,1.5722,1.5731,1.5733,1.5735,1.5735,1.5689,1.573,1.573,1.573,1.573,1.573,0,1.5264,1.529,1.5324,1.537,1.54,1.5408,1.5445,1.5469,1.5505,1.5538,1.5571,1.5616,1.5654,1.5687,1.5726,1.5746,1.5752,1.5755,1.5754,1.5759,1.5733,1.5724,1.575,1.575,1.575,1.575,1.575,1.575,1.5284,1.5326,1.5343,1.5399,1.5424,1.5465,1.5486,1.5513,1.554,1.559,1.5623,1.5644,1.5677,1.5719,1.5754,1.5763,1.5776,1.5779,1.5788,1.5763,1.5761,1.5759,1.575,1.5781,1.5781,1.5812,1.5812,1.5813]}]]